This demonstration page uses our WeatherBlox Daily Observations layout. Learn more.

Left ArrowRight Arrow

41.55636, -103.73856

Hourly Observations for December 24, 2017

Temp ( °F °C ) Dew Point ( °F °C ) Humidity (%) Winds ( mph kmh ) Pressure ( in mb ) Visibility ( mi km ) Precip ( " mm )
12:53 am 00:53 Clear -2 -18.9 -6 -21.1 83 83 NW 9 15 30.45 1031 10 16 N/A
1:53 am 01:53 Clear -6 -21.1 -9 -22.8 86 86 NNW 8 13 30.48 1032 10 16 N/A
2:53 am 02:53 Clear -4 -20 -8 -22.2 83 83 NNW 7 11 30.47 1032 10 16 N/A
3:53 am 03:53 Clear -7 -21.7 -10 -23.3 87 87 WNW 7 11 30.48 1032 10 16 N/A
4:53 am 04:53 Clear -8 -22.2 -12 -24.4 82 82 W 10 17 30.50 1033 10 16 N/A
5:53 am 05:53 Clear -12 -24.4 -14 -25.6 90 90 NW 8 13 30.52 1034 10 16 N/A
6:53 am 06:53 Clear -6 -21.1 -10 -23.3 83 83 NNW 12 19 30.52 1034 10 16 N/A
7:53 am 07:53 Sunny -8 -22.2 -11 -23.9 86 86 WNW 9 15 30.54 1034 10 16 N/A
8:53 am 08:53 Sunny -6 -21.1 -10 -23.3 83 83 WNW 9 15 30.55 1035 10 16 N/A
9:53 am 09:53 Sunny -4 -20 -8 -22.2 83 83 NW 7 11 30.54 1034 10 16 N/A
10:53 am 10:53 Sunny 1 -17.2 -5 -20.6 75 75 WNW 8 13 30.51 1033 10 16 N/A
11:53 am 11:53 Sunny 2 -16.7 -5 -20.6 72 72 NW 7 11 30.50 1033 10 16 N/A
12:53 pm 12:53 Sunny 4 -15.6 -3 -19.4 73 73 NW 8 13 30.48 1032 10 16 N/A
1:53 pm 13:53 Sunny 5 -15 -2 -18.9 72 72 NW 8 13 30.46 1032 10 16 N/A
2:53 pm 14:53 Sunny 7 -13.9 -1 -18.3 70 70 N 3 6 30.43 1030 10 16 N/A
3:53 pm 15:53 Sunny 5 -15 -1 -18.3 76 76 WNW 3 6 30.45 1031 10 16 N/A
4:53 pm 16:53 Clear -3 -19.4 -6 -21.1 86 86 N 3 6 30.47 1032 10 16 N/A
5:53 pm 17:53 Clear -6 -21.1 -10 -23.3 83 83 ENE 5 7 30.51 1033 10 16 N/A
6:53 pm 18:53 Clear -3 -19.4 -9 -22.8 75 75 NE 9 15 30.48 1032 10 16 N/A
7:53 pm 19:53 Clear -1 -18.3 -5 -20.6 82 82 N N/A 30.47 1032 10 16 N/A
8:53 pm 20:53 Clear N/A -4 -20 83 83 N N/A 30.45 1031 10 16 N/A
9:53 pm 21:53 Clear -1 -18.3 -5 -20.6 82 82 E 3 6 30.45 1031 10 16 N/A
10:53 pm 22:53 Clear N/A -5 -20.6 79 79 N N/A 30.43 1031 10 16 N/A
11:53 pm 23:53 Mostly Clear 2 -16.7 -3 -19.4 80 80 N N/A 30.41 1030 10 16 N/A

Powered by AerisWeather